Weather History for KFVE - December, 2012

Change the Weather History Date:

Friday, December 28, 2012

  Actual Average Record
Temperature  
Mean Temperature 19 °F 12 °F  
Max Temperature 21 °F 20 °F 42 °F (2011)
Min Temperature 17 °F 5 °F -9 °F (2004)
Degree Days  
Heating Degree Days 46    
Month to date heating degree days 1238  
Since 1 July heating degree days 3255  
Moisture  
Dew Point 16 °F    
Average Humidity 85    
Maximum Humidity 93    
Minimum Humidity 78    
Precipitation  
Precipitation 0.02 in 0.06 in 0.36 in (2011)
Month to date precipitation 2.02 2.36  
Year to date precipitation 32.18 33.42  
Sea Level Pressure  
Sea Level Pressure 29.71 in    
Wind  
Wind Speed 15 mph (NNW)    
Max Wind Speed 24 mph    
Max Gust Speed 33 mph    
Visibility 6 miles    
Events Rain , Snow    
T = Trace of Precipitation, MM = Missing Value Source: NWS Daily Summary

Daily Weather History Graph

Daily Weather History Graph

Search for Another Location

Airport or City:

Trip Planner

Search our weather history database for the weather conditions in past years. The results will help you decide how hot, cold, wet, or windy it might be!

Date:

Astronomy

Dec. 28, 2012 Rise Set
Actual Time 7:19 AM EST 3:50 PM EST
Civil Twilight 6:44 AM EST 4:26 PM EST
Nautical Twilight 6:05 AM EST 5:05 PM EST
Astronomical Twilight 5:27 AM EST 5:42 PM EST
Moon 4:28 PM EST (12/28) 7:08 AM EST (12/28)
Length of Visible Light 9h 41m
Length of Day
8h 30m
Full, 100% of the Moon is Illuminated
Dec 28
Full
Jan 4
Last Quarter
Jan 11
New
Jan 18
First Quarter
Jan 26
Full

Hourly Weather History & Observations

Time (EST) Temp. Windchill Dew Point Humidity Pressure Visibility Wind Dir Wind Speed Gust Speed Precip Events Conditions
12:10 AM 21.2 °F 9.5 °F 17.6 °F 86% 29.67 in 1.2 mi NNE 11.5 mph 19.6 mph 0.01 in Snow Light Snow
12:21 AM 21.2 °F 10.1 °F 17.6 °F 86% 29.67 in 1.5 mi North 10.4 mph 19.6 mph 0.01 in Snow Light Snow
12:34 AM 21.2 °F 10.1 °F 17.6 °F 86% 29.68 in 2.0 mi North 10.4 mph - 0.01 in Snow Light Snow
12:45 AM 21.2 °F 10.9 °F 17.6 °F 86% 29.68 in 4.0 mi North 9.2 mph - 0.01 in Snow Light Snow
12:53 AM 19.9 °F 6.7 °F 18.0 °F 92% 29.72 in 5.0 mi NNW 13.8 mph - 0.01 in Snow Light Snow
1:53 AM 19.9 °F 6.2 °F 18.0 °F 92% 29.70 in 4.0 mi North 15.0 mph 27.6 mph 0.01 in Snow Light Snow
2:40 AM 19.4 °F 5.0 °F 17.6 °F 93% 29.66 in 7.0 mi North 16.1 mph 23.0 mph 0.00 in Rain Light Freezing Rain
2:53 AM 19.9 °F 6.2 °F 17.1 °F 89% 29.70 in 8.0 mi North 15.0 mph 24.2 mph 0.00 in Rain Light Freezing Rain
3:53 AM 19.9 °F 4.3 °F 17.1 °F 89% 29.70 in 10.0 mi North 19.6 mph 26.5 mph 0.00 in Rain Light Freezing Rain
4:00 AM 19.4 °F 3.6 °F 17.6 °F 93% 29.65 in 10.0 mi North 19.6 mph 28.8 mph N/A   Overcast
4:39 AM 19.4 °F 5.5 °F 17.6 °F 93% 29.66 in 10.0 mi North 15.0 mph 24.2 mph N/A   Overcast
4:53 AM 19.9 °F 5.2 °F 18.0 °F 92% 29.70 in 10.0 mi NNW 17.3 mph 26.5 mph N/A   Overcast
5:53 AM 21.2 °F 7.3 °F 17.6 °F 86% 29.66 in 10.0 mi North 16.1 mph 25.3 mph N/A   Overcast
6:13 AM 21.2 °F 6.8 °F 17.6 °F 86% 29.66 in 10.0 mi NNW 17.3 mph 26.5 mph N/A   Overcast
6:24 AM 21.2 °F 7.3 °F 17.6 °F 86% 29.66 in 10.0 mi NNW 16.1 mph 24.2 mph N/A   Overcast
6:39 AM 21.2 °F 7.3 °F 17.6 °F 86% 29.67 in 10.0 mi NNW 16.1 mph 25.3 mph N/A   Overcast
6:53 AM 21.0 °F 6.2 °F 18.0 °F 88% 29.71 in 10.0 mi NNW 18.4 mph 26.5 mph N/A   Overcast
7:43 AM 19.4 °F 5.5 °F 17.6 °F 93% 29.67 in 9.0 mi NNW 15.0 mph 23.0 mph 0.00 in Snow Light Snow
7:53 AM 19.9 °F 6.2 °F 17.1 °F 89% 29.72 in 9.0 mi NNW 15.0 mph 24.2 mph 0.00 in Snow Light Snow
8:29 AM 19.4 °F 5.0 °F 17.6 °F 93% 29.67 in 1.8 mi NNW 16.1 mph 25.3 mph 0.00 in Snow Light Snow
8:37 AM 19.4 °F 4.5 °F 15.8 °F 86% 29.67 in 1.5 mi NNW 17.3 mph 25.3 mph 0.00 in Snow Light Snow
8:49 AM 19.4 °F 4.5 °F 15.8 °F 86% 29.67 in 1.2 mi NNW 17.3 mph 27.6 mph 0.00 in Snow Light Snow
8:53 AM 19.9 °F 5.2 °F 16.0 °F 85% 29.72 in 1.0 mi NNW 17.3 mph 27.6 mph 0.00 in Snow Light Snow
9:01 AM 19.4 °F 3.2 °F 15.8 °F 86% 29.69 in 0.8 mi NNW 20.7 mph 26.5 mph 0.00 in Snow Light Snow
9:33 AM 19.4 °F 5.5 °F 15.8 °F 86% 29.69 in 1.0 mi NNW 15.0 mph 26.5 mph 0.00 in Snow Light Snow
9:48 AM 19.4 °F 5.0 °F 15.8 °F 86% 29.69 in 1.8 mi NNW 16.1 mph 23.0 mph 0.00 in Snow Light Snow
9:53 AM 19.0 °F 5.0 °F 15.1 °F 85% 29.74 in 2.5 mi NNW 15.0 mph 23.0 mph 0.00 in Snow Light Snow
9:58 AM 19.4 °F 3.6 °F 15.8 °F 86% 29.69 in 5.0 mi NW 19.6 mph 23.0 mph 0.00 in Snow Light Snow
10:12 AM 19.4 °F 4.1 °F 15.8 °F 86% 29.69 in 2.5 mi NW 18.4 mph 25.3 mph 0.00 in Snow Light Snow
10:32 AM 19.4 °F 3.6 °F 15.8 °F 86% 29.69 in 4.0 mi NW 19.6 mph 24.2 mph 0.00 in Snow Light Snow
10:42 AM 19.4 °F 5.5 °F 15.8 °F 86% 29.69 in 3.0 mi NNW 15.0 mph 25.3 mph 0.00 in Snow Light Snow
10:49 AM 19.4 °F 3.6 °F 15.8 °F 86% 29.69 in 2.0 mi NNW 19.6 mph 26.5 mph 0.00 in Snow Light Snow
10:53 AM 19.0 °F 5.0 °F 15.1 °F 85% 29.73 in 1.5 mi NNW 15.0 mph 26.5 mph 0.00 in Snow Light Snow
11:01 AM 19.4 °F 4.1 °F 15.8 °F 86% 29.69 in 1.2 mi NNW 18.4 mph - 0.00 in Snow Light Snow
11:26 AM 19.4 °F 3.6 °F 15.8 °F 86% 29.68 in 1.8 mi NNW 19.6 mph 25.3 mph 0.00 in Snow Light Snow
11:37 AM 19.4 °F 5.5 °F 15.8 °F 86% 29.69 in 2.0 mi NW 15.0 mph 23.0 mph 0.00 in Snow Light Snow
11:52 AM 19.9 °F 3.9 °F 15.1 °F 81% 29.72 in 4.0 mi NNW 20.7 mph 25.3 mph 0.00 in Snow Light Snow
12:14 PM 19.4 °F 3.6 °F 15.8 °F 86% 29.68 in 9.0 mi NW 19.6 mph 29.9 mph 0.00 in Snow Light Snow
12:20 PM 19.4 °F 3.2 °F 15.8 °F 86% 29.68 in 9.0 mi NNW 20.7 mph 27.6 mph N/A Snow Light Snow
12:29 PM 21.2 °F 6.4 °F 15.8 °F 80% 29.67 in 9.0 mi NW 18.4 mph 29.9 mph N/A   Overcast
12:53 PM 21.0 °F 4.6 °F 15.1 °F 78% 29.71 in 10.0 mi NNW 23.0 mph 33.4 mph 0.00 in   Overcast
1:53 PM 19.9 °F 5.2 °F 16.0 °F 85% 29.74 in 9.0 mi NW 17.3 mph 25.3 mph 0.00 in Snow Light Snow
2:03 PM 19.4 °F 6.0 °F 15.8 °F 86% 29.70 in 10.0 mi NW 13.8 mph - N/A   Overcast
2:41 PM 19.4 °F 6.6 °F 15.8 °F 86% 29.71 in 3.0 mi NW 12.7 mph - 0.00 in Snow Light Snow
2:49 PM 19.4 °F 6.0 °F 15.8 °F 86% 29.72 in 2.5 mi NW 13.8 mph 19.6 mph 0.00 in Snow Light Snow
2:50 PM 19.9 °F 5.7 °F 15.1 °F 81% 29.76 in 2.0 mi NW 16.1 mph 19.6 mph 0.00 in Snow Light Snow
3:02 PM 19.4 °F 5.0 °F 14.0 °F 80% 29.72 in 2.5 mi NW 16.1 mph 26.5 mph 0.00 in Snow Light Snow
3:28 PM 19.4 °F 4.1 °F 14.0 °F 80% 29.72 in 3.0 mi NNW 18.4 mph 24.2 mph 0.00 in Snow Light Snow
3:53 PM 19.0 °F 4.5 °F 14.0 °F 81% 29.77 in 9.0 mi NW 16.1 mph 24.2 mph 0.00 in   Overcast
4:53 PM 18.0 °F 4.8 °F 14.0 °F 84% 29.78 in 10.0 mi NW 12.7 mph - N/A   Overcast
5:46 PM 17.6 °F 5.0 °F 12.2 °F 79% 29.73 in 4.0 mi NW 11.5 mph - 0.00 in Snow Light Snow
5:53 PM 18.0 °F 5.4 °F 14.0 °F 84% 29.78 in 4.0 mi NW 11.5 mph - 0.00 in Snow Light Snow
6:53 PM 18.0 °F 6.1 °F 14.0 °F 84% 29.79 in 7.0 mi NW 10.4 mph - 0.00 in Snow Light Snow
7:53 PM 18.0 °F 5.4 °F 12.9 °F 81% 29.80 in 5.0 mi NNW 11.5 mph - 0.00 in Snow Light Snow
8:53 PM 17.1 °F 3.6 °F 12.9 °F 84% 29.80 in 5.0 mi NW 12.7 mph 17.3 mph 0.00 in Snow Light Snow
9:17 PM 17.6 °F 6.4 °F 12.2 °F 79% 29.76 in 6.0 mi WNW 9.2 mph - 0.00 in Snow Light Snow
9:53 PM 17.1 °F 5.0 °F 12.0 °F 81% 29.81 in 7.0 mi WNW 10.4 mph - 0.00 in Snow Light Snow
10:53 PM 17.1 °F 5.8 °F 12.0 °F 81% 29.82 in 6.0 mi WNW 9.2 mph - 0.00 in   Haze
11:05 PM 17.6 °F 5.7 °F 12.2 °F 79% 29.77 in 9.0 mi WNW 10.4 mph - N/A   Overcast
11:53 PM 17.1 °F 5.8 °F 12.0 °F 81% 29.82 in 8.0 mi NW 9.2 mph - N/A   Overcast